Date,TemperatureHighF,TemperatureAvgF,TemperatureLowF,DewpointHighF,DewpointAvgF,DewpointLowF,HumidityHigh,HumidityAvg,HumidityLow,PressureMaxIn,PressureMinIn,WindSpeedMaxMPH,WindSpeedAvgMPH,GustSpeedMaxMPH,PrecipitationSumIn
2013-1-1,63.7,43.2,27.3,41.9,31.2,23.4,94,67,33,30.20,30.02,6,2,0,0.00
2013-1-2,63.0,45.4,28.0,34.6,29.0,23.8,94,58,24,30.05,29.89,7,2,0,0.00
2013-1-3,61.2,46.0,33.4,34.2,31.5,28.8,87,60,36,30.11,29.92,12,4,0,0.00
2013-1-4,62.2,46.9,35.6,32.9,30.9,28.3,80,55,31,30.21,30.10,8,3,0,0.00
2013-1-5,68.9,48.6,30.7,33.5,23.5,-38.2,90,48,1,30.27,30.13,5,2,0,0.00
2013-1-6,68.2,50.7,36.3,32.6,11.9,-38.3,68,35,1,30.13,29.87,6,2,0,0.00
2013-1-7,58.3,44.3,32.0,33.7,30.7,27.4,87,61,38,29.88,29.74,11,3,0,0.00
2013-1-8,67.1,45.0,30.7,35.3,30.7,27.8,91,61,25,30.03,29.83,6,2,0,0.00
2013-1-9,74.5,52.6,30.9,32.6,6.4,-39.6,85,37,1,30.16,29.96,11,3,0,0.00
2013-1-10,68.4,53.9,39.7,38.6,24.3,-36.9,56,36,1,29.99,29.72,18,4,0,0.00
2013-1-11,54.3,41.9,34.0,39.8,27.0,12.4,98,61,25,30.02,29.78,18,5,0,0.05
2013-1-12,51.3,35.3,23.4,23.3,15.4,-46.2,85,49,1,30.04,29.90,9,2,0,0.00
2013-1-13,61.3,35.7,20.7,37.4,8.6,-48.5,84,44,1,30.05,29.91,10,2,0,0.00
2013-1-14,55.2,34.0,20.7,25.9,7.9,-52.5,77,41,1,30.15,29.96,14,3,0,0.00
2013-1-15,63.7,35.1,18.0,25.2,-2.9,-54.3,76,33,1,30.29,30.14,7,2,0,0.00
2013-1-16,63.9,43.2,23.4,19.4,-5.3,-47.3,60,27,1,30.31,30.13,6,2,0,0.00
2013-1-17,70.5,53.7,32.4,20.0,-7.3,-43.1,55,20,1,30.19,30.06,10,4,0,0.00
2013-1-18,80.8,58.1,43.7,28.3,4.5,-37.8,49,23,1,30.18,30.01,7,2,0,0.00
2013-1-19,79.3,54.1,34.3,30.0,14.4,-36.8,66,35,1,30.19,30.04,8,2,0,0.00
2013-1-20,80.6,56.5,38.7,42.0,30.5,26.9,67,40,21,30.12,29.93,9,2,0,0.00
2013-1-21,84.4,59.6,40.8,38.4,33.4,-26.5,73,43,1,30.07,29.92,9,2,0,0.00
2013-1-22,88.0,61.8,41.9,42.3,26.6,-29.1,76,40,1,30.14,29.99,7,2,0,0.00
2013-1-23,90.0,63.9,45.7,39.0,20.7,-29.9,59,32,1,30.18,30.03,6,2,0,0.00
2013-1-24,65.5,59.4,54.7,54.9,46.0,35.7,86,63,43,30.20,30.10,5,1,0,0.01
2013-1-25,80.6,65.6,51.1,53.5,51.4,48.6,91,63,35,30.13,29.91,4,1,0,0.00
2013-1-26,70.9,61.2,55.2,61.7,33.7,-43.0,98,59,1,29.94,29.84,16,3,0,0.54
2013-1-27,68.0,58.9,49.8,57.4,25.9,-47.1,92,52,1,29.97,29.85,10,2,0,0.00
2013-1-28,57.4,50.6,43.7,52.9,44.0,32.8,90,78,56,29.95,29.86,22,7,0,0.09
2013-1-29,65.1,47.5,37.2,43.7,31.3,22.8,87,57,29,30.14,29.95,19,6,0,0.00
2013-1-30,62.8,45.8,31.1,33.5,27.6,20.7,89,53,21,30.29,30.13,11,3,0,0.00
2013-1-31,63.7,46.7,31.1,39.4,33.3,28.0,88,63,32,30.21,30.05,9,2,0,0.00
2013-2-1,77.2,52.4,34.0,38.6,26.7,-33.3,89,54,1,30.17,30.06,8,2,0,0.00
2013-2-2,82.2,56.6,36.0,40.6,22.3,-32.5,87,48,1,30.21,30.04,8,2,0,0.00
2013-2-3,79.0,58.8,49.3,43.2,39.9,32.8,73,53,20,30.08,29.89,9,2,0,0.00
2013-2-4,78.3,58.1,45.7,45.5,43.3,41.3,87,61,28,30.00,29.86,7,2,0,0.00
2013-2-5,79.2,58.0,42.3,48.3,44.1,39.4,90,64,28,29.98,29.82,10,2,0,0.00
2013-2-6,75.0,58.4,45.3,46.9,43.2,39.8,88,60,30,29.98,29.84,12,3,0,0.00
2013-2-7,77.5,56.5,42.1,45.9,37.2,-30.5,88,56,1,30.07,29.89,6,2,0,0.00
2013-2-8,70.0,56.7,42.6,38.8,14.0,-39.3,76,37,1,29.89,29.70,16,5,0,0.00
2013-2-9,54.1,45.6,36.0,41.2,26.8,-55.6,90,55,1,29.97,29.74,16,4,0,0.09
2013-2-10,64.0,44.6,27.5,31.6,27.8,20.8,89,57,24,29.99,29.84,9,2,0,0.00
2013-2-11,71.8,42.0,29.1,52.6,18.0,-55.0,88,55,1,30.09,29.89,12,2,0,0.13
2013-2-12,57.2,42.6,32.0,38.6,30.6,-58.1,89,67,1,30.22,30.09,7,2,0,0.00
2013-2-13,66.7,44.7,29.3,34.4,24.0,-37.9,88,58,1,30.15,29.99,8,2,0,0.00
2013-2-14,73.6,49.2,31.6,33.9,30.4,-32.7,87,55,1,30.09,29.95,8,2,0,0.00
2013-2-15,75.2,54.7,39.2,37.5,15.5,-39.6,85,42,1,30.19,30.05,14,3,0,0.00
2013-2-16,77.2,61.5,44.4,25.3,-15.8,-43.9,45,12,1,30.21,29.94,14,5,0,0.00
2013-2-17,76.6,59.2,39.6,27.2,-8.5,-43.4,49,16,1,29.94,29.77,16,4,0,0.00
2013-2-18,73.9,56.3,39.7,30.0,3.7,-39.7,55,26,1,30.01,29.84,7,1,0,0.00
2013-2-19,73.0,58.4,43.2,35.6,-3.1,-42.0,51,22,1,29.87,29.63,17,5,0,0.00
2013-2-20,53.2,42.2,33.3,41.1,8.0,-57.3,91,48,1,29.87,29.63,16,4,0,0.20
2013-2-21,55.2,43.6,33.3,40.6,6.6,-57.3,92,46,1,29.98,29.85,7,2,0,0.18
2013-2-22,58.8,46.4,36.0,41.8,30.6,-55.6,90,62,1,30.09,29.91,15,3,0,0.00
2013-2-23,70.9,49.7,32.0,35.3,28.2,-37.0,88,54,1,30.09,29.76,8,2,0,0.00
2013-2-24,55.8,45.4,35.6,35.3,11.7,-47.2,85,42,1,30.01,29.73,22,6,0,0.00
2013-2-25,64.0,44.3,28.2,25.7,19.2,-40.5,75,42,1,30.15,29.97,9,2,0,0.00
2013-2-26,65.7,49.2,29.3,31.1,16.0,-39.4,85,39,1,30.02,29.87,15,4,0,0.00
2013-2-27,69.3,49.3,33.8,28.3,-0.8,-44.9,75,30,1,30.16,30.01,17,4,0,0.00
2013-2-28,71.1,50.5,30.7,25.4,1.4,-41.8,69,29,1,30.26,30.13,10,3,0,0.00
2013-3-1,84.4,55.6,33.1,32.1,3.8,-40.5,68,29,1,30.30,30.12,7,2,0,0.00
2013-3-2,92.5,63.8,38.8,34.7,11.4,-34.2,76,30,1,30.27,30.03,6,2,0,0.00
2013-3-3,84.2,64.9,43.5,35.5,2.0,-35.2,64,24,1,30.07,29.86,12,3,0,0.00
2013-3-4,76.5,64.9,53.1,37.1,23.4,-37.2,51,28,1,30.01,29.81,21,5,0,0.00
2013-3-5,82.2,63.6,44.6,38.3,16.1,-33.0,67,32,1,30.05,29.88,17,3,0,0.00
2013-3-6,87.4,67.4,52.2,40.5,16.6,-31.8,59,29,1,29.98,29.80,12,2,0,0.00
2013-3-7,82.0,64.8,46.4,39.7,12.7,-34.8,66,29,1,29.92,29.78,12,3,0,0.00
2013-3-8,67.8,58.7,44.4,50.2,41.2,32.9,78,53,34,29.91,29.69,24,7,0,0.01
2013-3-9,58.3,49.0,43.7,41.7,39.3,36.4,87,70,53,30.02,29.90,14,4,0,0.00
2013-3-10,73.2,54.0,40.1,43.0,38.0,29.6,92,60,22,30.10,29.98,14,3,0,0.00
2013-3-11,80.1,57.6,38.7,39.4,29.6,-33.1,86,48,1,30.13,29.93,9,3,0,0.00
2013-3-12,89.4,62.5,40.1,44.0,24.3,-29.4,82,42,1,30.04,29.89,10,2,0,0.00
2013-3-13,97.2,69.8,46.2,41.2,13.6,-29.1,71,31,1,30.09,29.92,7,2,0,0.00
2013-3-14,100.2,73.1,48.2,38.0,5.2,-34.3,55,21,1,30.07,29.90,8,2,0,0.00
2013-3-15,98.1,73.6,52.7,34.9,3.9,-33.2,43,17,1,30.00,29.80,16,3,0,0.00
2013-3-16,91.0,72.6,51.4,35.2,-6.3,-39.4,50,15,1,29.85,29.63,17,4,0,0.00
2013-3-17,85.5,68.9,52.2,30.9,-1.3,-39.5,38,15,1,29.84,29.70,23,5,0,0.00
2013-3-18,90.0,68.3,51.6,38.9,9.8,-33.6,50,23,1,29.94,29.80,12,3,0,0.00
2013-3-19,85.1,67.2,51.3,41.0,17.5,-31.5,56,27,1,29.95,29.85,13,3,0,0.00
2013-3-20,86.5,68.2,50.4,39.4,12.2,-32.0,57,26,1,29.97,29.78,9,3,0,0.00
2013-3-21,79.3,67.3,53.2,39.2,36.2,33.4,51,33,20,29.78,29.63,9,2,0,0.00
2013-3-22,83.5,70.2,57.2,40.2,23.8,-30.9,48,26,1,29.72,29.57,19,5,0,0.00
2013-3-23,77.2,63.8,50.2,38.4,-0.8,-43.1,54,21,1,29.91,29.72,18,4,0,0.00
2013-3-24,80.2,60.9,41.9,21.1,-16.6,-44.4,42,12,1,29.95,29.77,16,3,0,0.00
2013-3-25,84.7,65.3,42.4,24.7,-10.2,-45.2,40,12,1,29.95,29.79,10,3,0,0.00
2013-3-26,93.4,71.2,53.6,29.1,-9.1,-37.9,34,11,1,29.92,29.71,14,3,0,0.00
2013-3-27,89.6,71.2,52.0,29.8,-10.0,-38.6,36,11,1,29.91,29.80,13,4,0,0.00
2013-3-28,87.4,71.4,54.1,35.6,-4.7,-35.2,38,13,1,29.98,29.85,12,4,0,0.00
2013-3-29,92.8,73.0,54.9,34.1,-4.0,-39.0,39,13,1,30.02,29.88,13,3,0,0.00
2013-3-30,90.7,72.0,56.1,34.1,2.8,-32.5,33,15,1,29.99,29.83,11,3,0,0.00
2013-3-31,91.9,70.5,50.0,36.8,3.0,-33.9,53,20,1,29.97,29.81,14,2,0,0.00
2013-4-1,90.3,71.1,52.0,40.7,15.6,-29.3,52,21,1,29.94,29.76,10,3,0,0.00
2013-4-2,81.0,64.5,48.0,31.1,7.8,-35.2,48,21,1,29.89,29.78,14,3,0,0.00
2013-4-3,88.5,67.0,48.0,35.3,8.3,-32.5,49,22,1,29.97,29.85,11,3,0,0.00
2013-4-4,92.7,71.9,51.1,39.3,3.9,-34.9,50,20,1,30.01,29.82,8,2,0,0.00
2013-4-5,92.1,74.4,57.4,35.8,6.5,-30.5,41,16,1,29.92,29.77,12,4,0,0.00
2013-4-6,92.5,73.3,54.7,40.8,14.9,-29.3,47,22,1,29.91,29.73,12,3,0,0.00
2013-4-7,89.8,73.3,55.6,43.3,13.9,-31.6,58,23,1,29.82,29.65,11,3,0,0.00
2013-4-8,84.9,69.6,47.8,45.6,31.6,-27.7,90,33,1,29.67,29.30,25,9,0,0.01
2013-4-9,66.9,57.5,47.3,47.9,34.6,24.9,94,46,23,29.81,29.53,17,7,0,0.07
2013-4-10,71.2,59.3,42.8,36.5,31.8,-4.0,71,38,5,29.92,29.81,17,4,0,0.00
2013-4-11,82.8,64.2,42.8,38.0,13.7,-34.0,73,31,1,29.92,29.67,14,2,0,0.00
2013-4-12,85.5,67.0,52.7,38.1,12.4,-32.9,43,23,1,29.75,29.64,16,2,0,0.00
2013-4-13,90.3,72.0,50.9,36.6,2.1,-32.5,55,19,1,29.80,29.63,14,4,0,0.00
2013-4-14,88.2,73.1,54.9,42.1,15.5,-30.4,47,23,1,29.74,29.58,16,5,0,0.00
2013-4-15,89.8,75.2,58.1,45.0,13.7,-30.2,51,22,1,29.74,29.60,18,7,0,0.00
2013-4-16,88.7,74.4,58.1,44.8,14.3,-30.2,52,22,1,29.75,29.61,15,6,0,0.00
2013-4-17,71.1,62.2,53.8,45.2,8.5,-43.1,59,26,1,29.92,29.69,17,8,0,0.00
2013-4-18,77.5,60.1,41.0,21.1,-16.5,-43.5,40,11,1,30.03,29.91,17,4,0,0.00
2013-4-19,90.3,66.0,42.4,24.7,-16.1,-43.5,41,11,1,30.08,29.84,10,2,0,0.00
2013-4-20,92.7,67.9,43.5,28.4,-12.7,-45.7,39,10,1,29.91,29.80,14,3,0,0.00
2013-4-21,95.5,73.7,48.7,28.3,-6.3,-36.4,41,12,1,29.98,29.84,12,3,0,0.00
2013-4-22,97.3,77.0,54.0,33.2,-8.7,-38.7,36,10,1,29.91,29.70,14,3,0,0.00
2013-4-23,95.2,76.3,54.1,31.5,-11.6,-39.3,35,8,1,29.81,29.71,17,3,0,0.00
2013-4-24,96.1,78.0,56.8,38.1,-2.9,-30.6,39,12,1,29.86,29.73,13,3,0,0.00
2013-4-25,85.8,75.0,62.2,40.8,-0.5,-35.1,39,14,1,29.95,29.78,23,6,0,0.00
2013-4-26,91.0,72.1,48.7,38.4,4.5,-33.0,51,19,1,30.05,29.92,12,3,0,0.00
2013-4-27,99.5,76.4,54.0,38.4,-0.8,-33.6,46,15,1,30.02,29.82,12,3,0,0.00
2013-4-28,101.8,79.6,55.0,35.9,-5.7,-34.9,39,11,1,29.86,29.69,12,2,0,0.00
2013-4-29,102.2,81.0,56.1,32.3,-16.5,-39.0,34,6,1,29.78,29.59,13,2,0,0.00
2013-4-30,101.5,82.4,61.0,32.5,-13.7,-36.1,28,6,1,29.75,29.62,12,4,0,0.00
2013-5-1,99.1,78.2,58.1,35.9,-7.2,-35.2,39,10,1,29.92,29.73,11,3,0,0.00
2013-5-2,97.2,78.4,59.9,37.8,-8.5,-38.9,32,9,1,30.05,29.89,11,5,0,0.00
2013-5-3,94.8,75.4,61.0,24.1,-21.4,-37.8,24,4,1,30.00,29.72,14,6,0,0.00
2013-5-4,98.4,79.5,57.6,32.3,-13.7,-38.6,33,6,1,29.78,29.63,16,4,0,0.00
2013-5-5,93.6,80.0,64.2,46.6,-4.0,-34.0,47,10,1,29.86,29.69,19,6,0,0.00
2013-5-6,88.7,73.4,57.2,56.1,37.0,-28.1,85,41,1,29.92,29.80,14,4,0,0.00
2013-5-7,64.4,63.5,63.0,42.0,41.4,40.7,45,44,44,29.89,29.88,3,2,0,0.00
2013-5-13,99.3,89.1,76.6,-17.5,-23.5,-30.9,1,1,1,29.96,29.84,10,4,0,0.00
2013-5-16,87.6,81.1,73.4,33.3,-16.1,-30.2,23,5,1,29.81,29.74,6,4,0,0.00
2013-5-17,99.3,82.1,62.1,42.8,0.3,-29.9,40,12,1,29.85,29.71,17,5,0,0.00
2013-5-18,94.1,79.5,62.2,45.2,4.0,-29.4,41,14,1,29.87,29.75,17,5,0,0.00
2013-5-19,95.2,80.6,62.2,49.5,14.4,-27.7,53,21,1,29.86,29.71,11,4,0,0.00
2013-5-20,95.4,79.7,60.6,46.1,2.7,-34.4,49,16,1,29.85,29.73,17,4,0,0.00
2013-5-21,100.8,80.3,57.7,34.1,-8.4,-35.4,34,9,1,29.85,29.69,10,2,0,0.00
2013-5-22,103.1,84.5,62.2,32.7,-14.0,-37.0,33,5,1,29.77,29.59,16,4,0,0.00
2013-5-23,102.4,85.0,64.0,42.6,-1.3,-32.1,36,10,1,29.80,29.67,17,5,0,0.00
2013-5-24,102.4,85.0,62.8,48.6,5.3,-31.8,42,13,1,29.88,29.74,15,4,0,0.00
2013-5-25,102.9,84.5,64.0,46.3,-0.7,-32.0,41,12,1,29.89,29.77,13,4,0,0.00
2013-5-26,100.2,81.9,60.6,36.5,-5.5,-34.0,35,10,1,29.91,29.78,14,4,0,0.00
2013-5-27,103.8,82.0,59.4,33.7,-12.5,-39.5,34,6,1,29.83,29.65,11,3,0,0.00
2013-5-28,99.1,81.8,61.2,37.1,-6.7,-34.9,31,8,1,29.71,29.53,16,5,0,0.00
2013-5-29,102.7,82.5,63.9,55.0,5.6,-27.3,45,15,1,29.70,29.58,14,4,0,0.00
2013-5-30,102.7,86.3,68.5,59.9,22.6,-24.9,65,26,1,29.78,29.65,12,4,0,0.00
2013-5-31,102.2,87.1,69.4,63.3,29.0,-23.2,70,29,1,29.84,29.69,14,4,0,0.00
2013-6-1,112.8,91.8,65.3,48.4,7.5,-24.6,48,14,1,29.79,29.61,10,3,0,0.00
2013-6-2,112.6,92.5,70.7,48.7,9.1,-24.8,45,13,1,29.75,29.59,14,4,0,0.00
2013-6-3,106.9,90.4,68.4,44.6,1.4,-26.6,39,11,1,29.81,29.65,14,4,0,0.00
2013-6-4,105.8,90.5,71.8,47.2,4.3,-28.2,38,10,1,29.82,29.69,16,4,0,0.00
2013-6-5,106.9,87.3,66.0,43.5,-1.8,-31.5,37,10,1,29.85,29.68,12,2,0,0.00
2013-6-6,106.9,81.9,63.1,35.8,1.5,-32.4,32,11,1,29.78,29.71,9,2,0,0.00
2013-6-7,114.4,98.8,83.1,37.0,-15.6,-25.0,18,2,1,29.76,29.56,10,4,0,0.00
2013-6-8,109.0,92.4,72.7,39.2,-12.5,-31.4,26,4,1,29.80,29.67,16,6,0,0.00
2013-6-9,107.4,91.0,71.6,45.9,-0.8,-27.7,38,9,1,29.86,29.71,13,4,0,0.00
2013-6-10,113.0,92.1,68.0,42.5,-4.6,-29.4,36,7,1,29.86,29.70,11,3,0,0.00
2013-6-11,109.8,93.1,69.4,40.8,-8.6,-28.7,34,5,1,29.85,29.70,18,4,0,0.00
2013-6-12,110.5,93.4,70.9,38.7,-10.3,-30.4,30,5,1,29.90,29.71,19,6,0,0.00
2013-6-13,105.6,92.4,75.7,55.1,17.7,-24.1,42,16,1,29.89,29.69,17,5,0,0.00
2013-6-14,107.2,93.0,77.9,60.3,30.9,-21.6,51,22,1,29.85,29.65,14,4,0,0.00
2013-6-15,105.4,89.1,78.3,71.3,58.7,49.4,65,38,18,29.86,29.71,10,3,0,0.19
2013-6-16,106.9,91.6,70.2,67.0,15.9,-25.4,87,24,1,29.89,29.73,10,3,0,0.00
2013-6-17,113.7,91.4,68.2,48.5,-3.0,-28.5,48,9,1,29.89,29.70,7,3,0,0.00
2013-6-18,109.9,90.3,66.6,46.8,-9.3,-31.8,35,6,1,29.83,29.65,12,3,0,0.00
2013-6-19,109.0,91.3,66.2,25.5,-18.8,-35.4,21,2,1,29.74,29.59,13,4,0,0.00
2013-6-20,109.4,90.1,65.8,43.3,-2.6,-29.3,39,9,1,29.80,29.65,13,4,0,0.00
2013-6-21,107.2,90.1,68.5,46.6,-3.9,-29.3,37,8,1,29.83,29.68,20,4,0,0.00
2013-6-22,106.7,89.8,68.4,43.1,-2.0,-29.6,37,9,1,29.84,29.65,15,4,0,0.00
2013-6-23,107.4,90.0,67.5,39.9,-5.8,-30.4,35,7,1,29.80,29.62,14,4,0,0.01
2013-6-24,105.1,89.1,68.7,41.9,-2.8,-29.9,30,8,1,29.82,29.67,14,5,0,0.00
2013-6-25,111.4,89.5,67.3,47.5,3.3,-28.8,43,11,1,29.90,29.75,9,3,0,0.00
2013-6-26,106.2,89.1,68.4,36.0,-11.3,-32.8,27,5,1,29.99,29.82,15,4,0,0.00
2013-6-27,105.8,89.4,69.8,44.0,-1.3,-31.4,34,9,1,30.01,29.81,19,5,0,0.00
2013-6-28,117.1,94.0,73.0,44.2,1.9,-23.9,32,9,1,29.91,29.71,10,3,0,0.00
2013-6-29,118.0,98.9,80.8,43.3,-6.8,-25.9,26,4,1,29.83,29.66,14,3,0,0.00
2013-6-30,113.5,95.9,80.2,66.4,32.3,-14.7,63,23,1,29.91,29.60,20,5,0,0.00
2013-7-1,111.7,92.5,78.6,66.4,49.5,-14.7,61,35,1,29.87,29.69,11,3,0,0.00
2013-7-2,107.8,90.6,72.9,68.1,61.2,55.5,85,41,21,30.01,29.74,19,6,0,0.07
2013-7-3,110.3,94.7,76.3,61.9,37.6,-15.5,56,25,1,29.87,29.60,17,4,0,0.00
2013-7-4,109.4,95.2,81.1,64.6,41.7,-15.5,52,27,1,29.80,29.60,12,4,0,0.00
2013-7-5,102.0,85.4,73.4,74.2,66.9,59.8,94,58,29,29.83,29.67,14,4,0,0.02
2013-7-6,113.0,87.9,71.8,70.0,62.6,-10.8,88,53,1,29.79,29.58,11,3,0,0.00
2013-7-7,112.3,92.3,76.6,68.1,57.4,-11.8,69,40,1,29.77,29.62,14,3,0,0.00
2013-7-8,111.2,93.8,82.6,66.8,59.6,-11.6,53,36,1,29.87,29.74,15,4,0,0.00
2013-7-9,100.9,90.5,79.5,73.7,69.0,64.4,77,51,36,30.00,29.78,18,6,0,0.01
2013-7-10,102.7,84.9,74.5,76.3,70.8,69.0,91,65,36,29.96,29.80,13,3,0,0.02
2013-7-11,97.5,83.7,73.6,76.5,71.8,64.3,98,69,43,29.93,29.79,14,3,0,0.09
2013-7-12,96.8,84.7,74.7,75.4,70.1,65.0,91,63,38,29.94,29.76,12,4,0,0.24
2013-7-13,103.8,89.5,76.5,71.3,68.1,63.7,82,52,28,29.90,29.74,14,4,0,0.00
2013-7-14,106.7,92.9,81.7,70.0,65.8,62.5,61,43,28,29.88,29.69,12,5,0,0.00
2013-7-15,107.2,90.3,78.8,69.9,66.5,60.8,68,48,25,29.81,29.61,18,4,0,0.00
2013-7-16,91.6,82.0,77.0,72.3,69.6,66.4,84,67,49,29.96,29.80,12,4,0,0.01
2013-7-17,104.9,88.8,76.6,70.9,64.2,56.6,80,49,22,29.96,29.81,12,4,0,0.01
2013-7-18,100.6,87.6,79.0,67.3,62.5,57.8,59,44,25,29.93,29.75,17,6,0,0.00
2013-7-19,95.9,85.9,78.8,71.0,66.0,63.4,66,52,37,29.89,29.73,10,3,0,0.02
2013-7-20,97.5,81.3,75.4,75.4,71.4,66.4,96,74,43,29.86,29.70,13,3,0,0.05
2013-7-21,98.4,85.0,75.7,75.4,71.6,67.1,97,67,38,29.90,29.77,14,4,0,0.00
2013-7-22,98.6,85.8,73.9,73.3,69.8,65.4,93,62,36,29.94,29.80,13,4,0,0.00
2013-7-23,100.2,88.1,75.6,69.9,66.4,64.1,76,51,32,29.94,29.76,16,4,0,0.00
2013-7-24,100.4,85.8,77.9,76.9,69.6,66.2,94,60,36,29.91,29.77,13,3,0,0.03
2013-7-25,98.2,84.0,77.5,74.9,72.5,68.2,89,70,43,29.97,29.86,6,2,0,0.00
2013-7-26,102.0,82.6,74.5,78.5,72.9,67.6,95,76,36,30.05,29.93,28,2,0,0.40
2013-7-27,101.5,84.5,75.4,76.9,72.7,68.8,96,70,39,29.97,29.79,17,2,0,0.33
2013-7-28,103.6,89.5,73.9,73.7,64.0,54.6,96,50,21,29.85,29.69,11,3,0,0.00
2013-7-29,109.2,90.7,73.6,64.0,41.0,-16.1,60,28,1,29.95,29.81,10,2,0,0.00
2013-7-30,109.0,91.6,75.6,64.2,55.5,-13.4,59,35,1,30.06,29.88,12,3,0,0.00
2013-7-31,107.1,91.2,81.0,66.5,60.8,-12.9,55,39,1,30.01,29.85,11,3,0,0.00
2013-8-1,95.5,87.5,82.0,68.3,65.4,60.8,58,48,37,29.94,29.84,14,3,0,0.00
2013-8-2,100.4,85.8,77.4,71.4,67.9,64.2,69,56,38,29.92,29.83,8,2,0,0.00
2013-8-3,109.2,89.0,72.9,67.8,63.9,57.9,79,48,21,29.95,29.79,10,3,0,0.00
2013-8-4,102.4,88.3,80.2,68.2,63.7,57.2,59,45,24,29.96,29.84,9,2,0,0.00
2013-8-5,100.2,83.4,72.3,71.3,65.0,59.1,96,58,26,30.01,29.80,16,5,0,0.10
2013-8-6,90.5,78.8,73.2,74.5,70.3,64.3,98,77,49,29.98,29.88,15,3,0,0.02
2013-8-7,100.6,84.2,70.3,70.7,64.0,52.8,97,57,23,29.99,29.83,17,3,0,0.00
2013-8-8,108.3,87.8,68.7,63.7,31.6,-22.9,73,31,1,29.92,29.74,9,2,0,0.00
2013-8-9,107.4,89.3,68.0,53.7,20.6,-20.1,53,21,1,29.88,29.74,14,3,0,0.00
2013-8-10,108.0,91.2,75.6,60.6,12.7,-25.2,41,14,1,29.95,29.79,12,3,0,0.00
2013-8-11,104.7,89.3,76.3,67.0,60.2,39.1,61,39,21,29.92,29.75,14,3,0,0.00
2013-8-12,111.2,91.8,73.8,66.4,34.6,-24.8,68,30,1,29.88,29.73,14,4,0,0.00
2013-8-13,107.8,90.2,71.6,54.0,16.1,-23.0,50,17,1,29.93,29.75,11,4,0,0.00
2013-8-14,108.9,89.8,77.4,66.7,44.0,-16.5,58,31,1,29.92,29.73,18,5,0,0.00
2013-8-15,113.9,92.4,76.5,66.4,53.0,-13.9,65,36,1,29.94,29.75,10,3,0,0.00
2013-8-16,114.8,94.3,78.6,66.6,48.2,-13.9,58,33,1,29.91,29.75,12,3,0,0.00
2013-8-17,114.4,94.1,76.3,67.0,46.1,-15.1,68,33,1,29.92,29.70,11,3,0,0.00
2013-8-18,109.2,92.9,82.2,65.3,50.5,-16.6,54,31,1,29.93,29.80,14,4,0,0.00
2013-8-19,107.8,92.4,80.1,64.5,46.5,-15.3,56,32,1,29.92,29.74,10,3,0,0.00
2013-8-20,109.8,88.8,80.8,70.8,63.5,56.2,70,45,21,29.92,29.77,14,4,0,0.02
2013-8-21,101.7,86.7,77.0,67.9,63.7,58.9,68,49,26,29.92,29.78,12,4,0,0.00
2013-8-22,106.0,85.9,72.7,70.3,63.7,51.8,80,52,17,29.91,29.71,16,3,0,0.07
2013-8-23,106.7,85.5,71.6,69.7,64.9,56.0,92,55,22,29.88,29.67,11,3,0,0.00
2013-8-24,94.5,82.2,73.8,75.7,67.1,61.1,98,63,35,29.91,29.77,12,4,0,0.05
2013-8-25,94.3,79.3,73.4,76.7,72.0,55.3,98,81,45,29.95,29.84,9,2,0,0.10
2013-8-26,105.1,81.9,72.7,78.0,70.1,46.0,98,72,26,29.92,29.75,9,2,0,0.08
2013-8-27,105.6,87.2,68.7,73.3,63.4,51.9,98,53,20,29.84,29.68,9,2,0,0.01
2013-8-28,99.7,86.8,78.1,71.5,67.0,63.2,79,54,34,29.93,29.75,11,3,0,0.00
2013-8-29,96.4,81.4,75.6,74.4,71.9,69.1,91,74,44,30.05,29.92,7,2,0,0.00
2013-8-30,94.6,82.4,73.4,75.3,72.2,67.5,98,74,45,30.02,29.89,6,2,0,0.00
2013-8-31,99.1,86.0,72.1,73.4,69.8,66.6,93,61,40,29.96,29.77,16,4,0,0.00
2013-9-1,104.9,88.7,72.7,71.3,67.3,61.3,84,53,32,29.88,29.72,13,3,0,0.00
2013-9-2,102.9,86.8,76.1,71.0,66.6,59.4,82,54,25,29.95,29.72,8,3,0,0.00
2013-9-3,107.8,84.3,73.8,71.4,66.5,61.5,86,58,24,29.88,29.79,11,3,0,0.02
2013-9-4,106.0,88.0,69.8,69.4,59.9,-13.6,89,47,1,29.92,29.77,9,3,0,0.00
2013-9-5,108.0,90.8,73.6,62.1,48.0,-16.1,59,32,1,29.90,29.77,11,3,0,0.00
2013-9-6,105.8,87.1,73.8,69.6,61.9,54.8,74,45,20,29.91,29.75,14,2,0,0.06
2013-9-7,94.6,81.4,74.5,71.3,67.6,64.5,83,64,41,29.95,29.80,9,3,0,0.00
2013-9-8,90.1,78.1,72.3,73.7,70.0,66.8,98,77,53,29.84,29.72,11,4,0,0.06
2013-9-9,92.1,76.1,69.4,77.0,71.4,64.5,98,87,52,29.78,29.66,11,2,0,0.19
2013-9-10,91.4,77.6,64.8,71.2,48.9,-37.9,98,54,1,29.87,29.75,8,3,0,0.05
2013-9-11,97.0,80.0,64.0,69.9,64.2,58.8,98,64,29,29.95,29.79,14,3,0,0.00
2013-9-12,101.3,83.0,66.4,68.3,63.9,56.6,95,57,30,29.86,29.67,16,4,0,0.00
2013-9-13,108.3,87.2,72.7,70.7,61.0,-16.0,88,51,1,29.75,29.55,9,2,0,0.00
2013-9-14,106.9,88.7,76.1,69.5,62.0,0.3,74,46,2,29.71,29.57,9,3,0,0.00
2013-9-15,105.1,89.0,76.1,66.7,61.6,52.4,65,43,18,29.76,29.64,16,3,0,0.00
2013-9-16,105.3,90.9,79.2,67.6,63.9,58.6,58,43,22,29.82,29.66,10,5,0,0.00
2013-9-17,111.6,91.5,78.4,67.1,57.0,-16.1,63,39,1,29.79,29.57,10,4,0,0.00
2013-9-18,109.2,89.5,73.9,64.7,36.5,-19.5,63,28,1,29.74,29.57,12,3,0,0.00
2013-9-19,107.4,86.8,68.9,58.1,44.5,-16.4,59,32,1,29.75,29.60,11,3,0,0.00
2013-9-20,105.8,85.4,68.7,62.0,53.9,-15.9,55,37,1,29.80,29.66,12,3,0,0.00
2013-9-21,100.0,86.4,71.8,66.6,60.2,53.4,69,44,23,29.82,29.60,11,3,0,0.00
2013-9-22,95.0,83.6,73.2,69.4,59.1,40.8,74,46,26,29.69,29.55,23,6,0,0.00
2013-9-23,100.6,77.8,59.0,48.5,30.0,-27.7,63,29,1,29.85,29.69,10,2,0,0.00
2013-9-24,104.5,80.8,59.9,47.9,13.1,-30.6,55,21,1,29.92,29.72,10,2,0,0.00
2013-9-25,98.6,80.1,62.4,43.0,4.2,-33.6,45,15,1,29.77,29.59,17,4,0,0.00
2013-9-26,96.6,78.9,60.4,59.8,26.4,-24.8,58,25,1,29.70,29.57,16,5,0,0.00
2013-9-27,84.9,73.7,63.3,63.7,50.4,30.7,73,46,23,29.87,29.67,14,6,0,0.00
2013-9-28,94.3,73.5,53.1,46.3,32.9,-23.2,55,31,1,29.99,29.86,8,2,0,0.00
2013-9-29,98.2,76.6,58.5,47.8,35.5,-23.6,60,32,1,30.02,29.87,7,2,0,0.00
2013-9-30,97.0,75.7,57.2,46.0,21.7,-29.9,59,27,1,29.92,29.77,10,3,0,0.00
2013-10-1,99.3,76.9,55.8,44.9,19.2,-26.6,50,23,1,29.91,29.77,9,2,0,0.00
2013-10-2,98.6,78.0,58.1,53.9,37.7,-23.3,62,33,1,29.92,29.74,7,2,0,0.00
2013-10-3,95.7,78.1,61.9,60.0,35.7,-26.3,65,35,1,29.83,29.63,14,4,0,0.00
2013-10-4,90.3,74.8,57.9,54.8,42.3,-33.1,67,37,1,29.88,29.72,14,4,0,0.00
2013-10-5,86.0,69.4,52.5,40.1,-5.6,-39.6,45,14,1,30.03,29.89,14,3,0,0.00
2013-10-6,92.3,74.0,49.8,31.1,-14.4,-41.0,39,9,1,30.05,29.91,10,4,0,0.00
2013-10-7,97.9,78.8,59.2,34.7,0.7,-35.4,31,12,1,29.96,29.79,10,3,0,0.00
2013-10-8,93.4,75.7,58.5,40.6,9.5,-30.6,43,18,1,29.86,29.69,13,3,0,0.00
2013-10-9,91.0,75.1,56.8,52.1,32.1,-25.8,49,29,1,29.74,29.59,14,4,0,0.00
2013-10-10,73.6,65.0,57.4,55.1,49.8,45.5,78,59,41,29.88,29.64,14,6,0,0.00
2013-10-11,83.3,64.7,46.8,50.7,45.1,40.7,91,53,24,29.93,29.79,8,3,0,0.00
2013-10-12,93.4,70.6,46.8,45.2,30.3,-25.6,76,36,1,29.89,29.73,8,2,0,0.00
2013-10-13,92.1,72.6,54.1,51.2,37.6,-23.7,66,37,1,29.91,29.75,15,4,0,0.00
2013-10-14,89.1,69.8,52.9,51.0,42.8,-10.0,75,42,2,29.96,29.80,8,2,0,0.00
2013-10-15,86.7,69.6,51.6,46.9,30.9,-29.1,64,33,1,29.88,29.73,12,4,0,0.00
2013-10-16,86.7,64.9,46.9,35.9,8.7,-37.2,57,24,1,29.99,29.85,9,2,0,0.00
2013-10-17,87.6,64.0,42.4,31.0,1.3,-34.8,54,21,1,30.00,29.79,8,2,0,0.00
2013-10-18,85.5,64.7,44.4,33.2,7.9,-33.4,52,23,1,29.96,29.82,10,2,0,0.00
2013-10-19,88.7,63.9,44.1,34.2,1.2,-39.9,56,23,1,29.99,29.82,9,2,0,0.00
2013-10-20,87.8,65.7,44.4,31.0,-2.4,-37.0,47,17,1,29.93,29.74,15,2,0,0.00
2013-10-21,87.4,66.4,47.1,26.3,-0.8,-36.9,44,17,1,29.94,29.82,11,2,0,0.00
2013-10-22,92.3,71.9,46.8,32.3,-6.3,-32.0,46,13,1,29.99,29.80,10,3,0,0.00
2013-10-23,97.2,77.3,63.9,33.0,4.0,-30.9,28,13,1,29.88,29.70,10,3,0,0.00
2013-10-24,93.2,74.1,54.3,38.1,2.6,-33.3,46,17,1,29.90,29.74,11,3,0,0.00
2013-10-25,89.2,70.0,50.9,38.0,14.2,-29.7,51,23,1,30.01,29.87,10,2,0,0.00
2013-10-26,93.6,68.8,46.8,39.0,17.4,-29.3,58,27,1,30.05,29.88,6,1,0,0.00
2013-10-27,96.1,74.1,57.2,43.3,7.2,-35.8,44,18,1,29.91,29.66,11,2,0,0.00
2013-10-28,81.5,68.6,54.9,42.7,27.0,-30.5,53,31,1,29.83,29.72,21,3,0,0.00
2013-10-29,83.7,68.6,54.9,45.3,34.0,-28.6,62,36,1,29.87,29.71,26,5,0,0.00
2013-10-30,71.8,58.0,46.6,45.7,39.5,31.8,76,52,28,29.95,29.79,12,3,0,0.00
2013-10-31,79.2,57.0,39.4,37.8,21.9,-35.2,72,39,1,30.05,29.89,9,2,0,0.00
2013-11-1,88.0,59.6,39.0,33.7,17.5,-32.4,59,32,1,30.10,29.92,7,1,0,0.00
2013-11-2,95.2,71.6,50.0,55.4,-1.9,-33.7,84,16,1,29.97,29.75,11,3,0,0.02
2013-11-3,84.7,68.1,56.1,58.3,52.6,45.4,98,63,28,29.87,29.63,10,3,0,0.06
2013-11-4,81.9,66.3,50.4,57.5,50.1,45.4,85,59,32,29.77,29.59,14,4,0,0.00
2013-11-5,76.8,61.9,52.9,51.6,47.8,43.6,86,62,33,30.04,29.73,10,3,0,0.00
2013-11-6,78.8,61.1,42.8,45.9,9.0,-40.8,96,36,1,30.19,30.03,9,2,0,0.00
2013-11-7,85.8,68.9,54.1,33.8,-20.5,-44.4,34,6,1,30.15,29.94,11,4,0,0.00
2013-11-8,89.4,73.3,57.7,42.4,28.9,-26.8,50,28,1,30.01,29.84,9,2,0,0.00
2013-11-9,90.7,66.4,47.7,45.3,39.4,-23.0,67,42,1,30.05,29.90,5,1,0,0.00
2013-11-10,89.4,67.6,48.4,46.4,33.8,-24.9,70,40,1,30.08,29.89,11,2,0,0.00
2013-11-11,92.8,68.7,48.7,48.4,37.7,-22.9,68,40,1,30.02,29.87,9,2,0,0.00
2013-11-12,84.6,73.5,59.4,50.1,43.5,34.2,51,35,22,30.11,29.98,18,7,0,0.00
2013-11-13,80.2,68.9,62.6,50.6,47.9,45.6,56,48,34,30.08,29.87,14,6,0,0.00
2013-11-14,85.5,66.9,53.4,51.8,46.0,40.6,73,49,24,29.95,29.75,7,2,0,0.00
2013-11-15,77.9,66.2,54.1,55.3,48.7,39.2,65,54,41,29.76,29.54,11,4,0,0.00
2013-11-16,79.5,67.1,53.8,55.8,49.4,37.5,94,57,25,29.78,29.61,13,5,0,0.00
2013-11-17,78.1,64.6,52.0,53.6,50.6,47.7,86,63,39,29.97,29.80,7,2,0,0.00
2013-11-18,84.2,65.5,50.4,54.0,49.6,46.4,88,60,31,30.01,29.85,8,2,0,0.00
2013-11-19,84.2,63.5,47.3,50.1,44.8,21.4,86,56,10,29.91,29.72,7,2,0,0.00
2013-11-20,78.6,63.8,49.5,47.6,44.8,41.9,77,52,29,29.82,29.70,11,3,0,0.00
2013-11-21,75.6,64.1,51.8,58.1,48.2,43.4,93,58,37,29.85,29.73,8,2,0,0.00
2013-11-22,65.8,55.7,48.2,62.5,52.9,39.0,98,91,65,29.87,29.68,12,4,0,0.29
2013-11-23,57.2,50.8,47.7,56.6,34.3,-46.8,98,79,1,29.99,29.88,10,4,0,0.97
2013-11-24,62.2,51.4,43.7,50.6,46.3,41.7,98,84,58,30.07,29.95,7,2,0,0.00
2013-11-25,64.0,49.2,37.2,47.2,43.7,36.6,98,83,53,30.14,30.03,7,1,0,0.00
2013-11-26,66.7,54.1,40.8,43.0,38.0,31.8,98,59,34,30.21,30.04,12,4,0,0.00
2013-11-27,63.7,55.8,50.5,32.5,30.6,28.9,48,39,28,30.07,29.91,10,5,0,0.00
2013-11-28,77.7,58.3,46.8,42.6,36.2,30.2,75,46,24,30.01,29.89,8,3,0,0.00
2013-11-29,80.4,58.8,44.2,50.6,45.5,40.7,91,65,31,30.11,29.96,7,1,0,0.00
2013-11-30,77.2,58.1,45.1,51.5,49.0,44.6,98,75,40,30.11,29.95,5,1,0,0.00
2013-12-1,71.6,58.3,48.2,53.6,50.5,47.7,98,78,47,30.15,30.00,8,1,0,0.00
2013-12-2,77.4,55.7,42.1,51.0,44.1,37.3,98,70,25,30.08,29.82,5,1,0,0.00
2013-12-3,80.1,58.8,44.4,47.5,36.6,-33.6,87,56,1,29.85,29.62,9,2,0,0.00
2013-12-4,68.4,57.7,46.4,52.2,46.5,40.2,98,69,37,29.84,29.66,19,5,0,0.01
2013-12-5,63.7,49.1,40.3,53.1,39.9,30.6,98,72,52,30.00,29.79,9,3,0,0.07
2013-12-6,59.4,41.5,28.6,32.4,29.8,25.7,98,67,30,30.12,29.98,7,2,0,0.00
2013-12-7,78.6,45.8,28.8,45.4,31.3,24.7,98,63,23,30.02,29.87,8,2,0,0.00
2013-12-8,60.1,49.0,40.5,44.7,40.3,31.3,91,73,54,30.04,29.91,8,2,0,0.00
2013-12-9,58.5,43.6,32.5,34.6,27.1,22.8,82,53,28,30.20,29.98,8,3,0,0.00
2013-12-10,64.8,46.5,28.8,36.0,27.2,-38.1,95,54,1,30.19,29.99,5,1,0,0.00
2013-12-11,74.7,55.0,35.4,47.7,38.5,29.2,86,57,36,30.11,30.00,8,2,0,0.00
2013-12-12,74.1,59.2,47.5,50.1,41.2,35.9,74,52,39,30.11,29.94,14,3,0,0.00
2013-12-13,68.4,49.6,36.5,40.4,37.0,34.1,92,65,36,30.11,29.98,8,2,0,0.00
2013-12-14,67.1,48.5,34.9,39.9,34.7,31.4,97,63,27,30.21,30.07,9,2,0,0.00
2013-12-15,72.0,52.7,37.0,36.3,32.7,29.4,78,49,22,30.22,30.08,8,3,0,0.00
2013-12-16,84.0,56.2,37.2,39.0,23.2,-32.7,81,46,1,30.16,30.03,5,1,0,0.00
2013-12-17,85.6,60.8,39.7,42.7,20.0,-32.7,76,36,1,30.17,29.97,5,1,0,0.00
2013-12-18,84.0,63.5,52.2,39.7,19.4,-31.9,50,29,1,30.00,29.75,6,1,0,0.00
2013-12-19,72.5,57.4,43.0,37.9,32.0,-20.6,68,42,2,29.78,29.58,13,3,0,0.00
2013-12-20,55.4,48.2,44.2,47.3,32.8,-50.5,98,73,1,29.74,29.53,11,4,0,0.29
2013-12-21,53.6,47.8,43.0,47.2,43.5,38.1,98,86,57,29.96,29.72,11,3,0,0.07
2013-12-22,67.3,47.6,36.9,47.1,40.1,-53.6,98,79,1,30.19,29.97,5,1,0,0.00
2013-12-23,67.1,49.8,33.4,41.1,34.1,28.5,98,62,24,30.27,30.15,9,2,0,0.00
2013-12-24,72.5,52.9,40.3,39.1,32.8,27.7,84,49,22,30.15,30.01,8,2,0,0.00
2013-12-25,68.9,51.5,34.9,41.0,34.5,28.3,98,58,27,30.18,30.03,10,3,0,0.00
2013-12-26,66.0,53.6,40.6,32.0,27.6,22.1,59,38,22,30.16,30.01,9,4,0,0.00
2013-12-27,67.8,53.9,39.7,31.9,20.3,-37.4,62,35,1,30.16,30.01,15,4,0,0.00
2013-12-28,67.8,52.9,41.0,35.8,29.9,22.6,59,43,20,30.06,29.84,6,2,0,0.00
2013-12-29,67.5,51.6,37.9,38.7,34.9,31.8,81,55,30,30.05,29.86,10,2,0,0.00
2013-12-30,73.2,49.6,33.4,37.1,33.8,29.4,98,60,21,30.21,30.05,8,2,0,0.00
2013-12-31,81.1,53.5,35.2,33.7,20.3,-35.2,81,44,1,30.16,29.98,5,1,0,0.00
2014-1-1,75.4,51.6,35.8,36.7,31.6,-31.6,78,52,1,30.11,29.96,7,1,0,0.00
2014-1-2,76.6,57.4,38.1,35.8,21.3,-33.6,82,41,1,30.11,29.94,9,3,0,0.00